Погода в Благовещенке

Погода в Благовещенке : погода сейчас, прогноз погоды и архив. Всё, что Вы хотите узнать о погоде в Благовещенке!

Поиск расширенной информации на нашем сайте:

Другие новости

Новости СМИ2

Главная страница сайта

Новости сайта

03.07.2017

Напоминаем, что на нашем специализированном сайте Метеоцентр.Азия вы можете получить высокодетализированные автоматические прогнозы погоды по пунктам России, СНГ и мира в авиационном формате (включающие направление и скорость ветра, видимость, явления погоды, количество и форму облачности, нижнюю и верхнюю границу облачности).

Рекомендуем: Одесса транспортно экспедиторские - экспедиторские компании одесса ukrspec.com.

Погода в Благовещенке - сегодня

Время (UTC), дата Ветер
(°,м/с) 
Видим.   Явления Облачность Т
(°С)
Тd
(°С)
f(%) Тe
(°С)
Pmin
(гПа)
dP
(гПа)
Po
(мм)
O2
(г/м3)
Тmin Tmax R s Состояние
почвы
15 16.04.18 310 (СЗ) н/о    6/6 600 м 
[Sc]
+1.2 -6.3 57 1013.4  2.3  746  300    +6.7       
18 16.04.18 350 (С) н/о    ясно 
-0.8 -6.2 67 -3  1015.7  2.2  748  303    +6.7       
00 17.04.18 130 (ЮВ) н/о  дымка  ясно 
-5.8 -7.3 89 -5  1018.1  0.9  749  309           
06 17.04.18 280 (З) 20000 м    9/4 1000 м средняя 
[Cu med, cong|Ac trans]
+2.5 -7.9 46 +1  1019.3  750  300  -5.8         
09 17.04.18 310 (СЗ) 20000 м    10/8 600 м верхняя 
[Sc|Ci fib]
+3.8 -8.1 41 +3  1019.6  0.4  751  299           
12 17.04.18 330 (СЗ) 20000 м    8/8 600 м 
[Sc]
+3 -8.5 43 +2  1020.3  0.6  751  300           
15 17.04.18 080 (В) н/о    8/0 верхняя 
[Ci fib]
-0.5 -7 61 -1  1020.9  0.4  751  304    +4.4       
18 17.04.18 110 (В) н/о    ясно 
-1.9 -5.7 75 -1  1021.7  0.7  752  306    +4.4       
21 17.04.18 110 (В) н/о  дымка  ясно 
-2.3 -4.8 83 -2  1021.8  752  306           
00 18.04.18 080 (В) н/о  дымка  ясно 
-2.3 -4.5 85 -2  1022  0.2  752  306           
06 18.04.18 120 (ЮВ) 20000 м    9/0 верхняя 
[Ci]
+3.2 -6.4 49 +1  1022  -0.1  752  300  -3.1         
09 18.04.18 110 (В) 20000 м    9/3 600 м верхняя 
[Sc|Ci fib]
+4.2 -6.5 46 +3  1021.3  -0.6  752  299           
12 18.04.18 090 (В) 20000 м    9/3 1000 м верхняя 
[Sc|Ci fib]
+4.3 -4.7 52 +3  1021.2  -0.1  752  299           
15 18.04.18 060 (СВ) н/о    6/3 600 м верхняя 
[Sc|Ci fib]
+1.1 -4.5 66 1021.7  0.3  752  302    +5.1       
18 18.04.18 070 (В) н/о    10/10 600 м 
[Sc]
-1.1 -5.4 73 -2  1022.5  0.5  752  305    +5.1       
21 18.04.18 100 (В) н/о    10/10 600 м 
[Sc]
-1.9 -5.4 77 -1  1022.4  -0.1  752  306           
00 19.04.18 150 (ЮВ) н/о    6/6 600 м 
[Sc]
-3.1 -6.2 79 -5  1021.6  -0.9  752  307           
06 19.04.18 270 (З) 20000 м    8/8 1000 м 
[Cu med, cong]
+4.7 -3.7 54 +3  1019.7  -0.6  751  298  -3.4         
09 19.04.18 250 (З) 20000 м    6/6 1000 м 
[Cu med, cong]
+6.6 -4.7 44 +4  1018.4  -1.2  750  295           
18 19.04.18 200 (Ю) 6{16}  н/о    ясно 
+3.8 -1.5 68 +1  1013.6  746  297    +8.2       
21 19.04.18 190 (Ю) н/о    ясно 
+4.5 +0 73 +3  1011.5  -2.1  745  295           
00 20.04.18 210 (ЮЗ) н/о    ясно 
+5.5 +2 78 +3  1009  -2.3  743  293           
03 20.04.18 220 (ЮЗ) 4000 м  слаб. морось  10/10 300 м 
[St]
+6.9 +6.9 100 +5  1007.8  -1.1  742  290      0.0     
09 20.04.18 230 (ЮЗ) 16-24  20000 м    10/6 600 м верхняя 
[Sc|Ci fib]
+13.4 +4.8 56 +11  1005.4  -1.5  741  284           
21 20.04.18 230 (ЮЗ) 13-19  н/о    10/10 600 м 
[Sc]
+11.7 +2 51 +9  1001.3  -1.3  737  285           
Время (UTC), дата Ветер
(°,м/с) 
Видим.   Явления Облачность Т
(°С)
Тd
(°С)
f(%) Тe
(°С)
Pmin
(гПа)
dP
(гПа)
Po
(мм)
O2
(г/м3)
Тmin Tmax R s Состояние
почвы

Для получения пояснительной информации подведите курсор к названию столбца.

ПОГОДА в Благовещенке - архив

Всё, что Вы хотите узнать о погоде в Благовещенке - удобно и подробно!

Выберите нужную дату (начиная с 1 января 2015* года) и нажмите кнопку "Найти".
Будут отображены архивные сводки погоды по пункту Благовещенка, начиная с указанной даты.


Отображать данные в формате CSV (для использования в таблицах Excel)


Внимание! Наш архив погоды предназначен исключительно для личного некоммерческого использования в познавательных целях. Если Вам необходимы официальные справки о состоянии погоды (для производственных, юридических, коммерческих и т.п. целей), обращайтесь в органы Росгидромета.

*Примечание: данная дата относится к архиву по метеостанциям СССР (Россия, СНГ, Балтия).
Архив по метеостанциям Зарубежной Европы и Азии (кроме Китая) хранится 10 дней, по другим регионам земного шара (Китай, Африка, Америка, Австралия, Океания) - 1 день.

Благовещенка - район местоположения метеостанции


Название, широта, долгота, высота метеостанции:
Благовещенка 54.4°ш. 67°д. 151 м над ур. моря [Казахстан]

Дополнительная информация

В oтличие oт бoльшинства пoгoдных сайтoв мы публикуем пoдрoбную метеoинфoрмацию в детальнoм прoфессиoнальнoм фoрмате.

Характеристики температуры и влажнoсти вoздуха измеряются на высoте 2 м в тени вдали oт зданий и деревьев.
Скoрoсть ветра измеряется на высoте 10 м (на урoвне рoста челoвека скoрoсть ветра ниже в 1.5-2 раза). Если метеoстанция нахoдится в гoрoде или в лесу, тo скoрoсть ветра занижена на 2-4 м/с пo сравнению с oткрытым местoм. Скoрoсть ветра над акватoриями крупных рек и oзёр, а также на вершинах хoлмoв на 2-5 м/с выше, чем в oбычных услoвиях.
Атмoсфернoе давление в разных тoчках местнoсти мoжет значительнo oтличаться oт давления на метеoстанции, в зависимoсти oт услoвий рельефа (при пoдъёме на 10 м давление пoнижается примернo на 1 мм рт.ст.).